KTAZ

Details ICAO KTAZ
Name TAYLORVILLE MUNI
Region United States
Timezone America/Chicago (UTC-5.0)
Plans Departing 0
Arriving 0
Stats Elevation 622 ft / 190 m (AMSL)
Location 39.535225° -89.328026°
Runways 2
Magnetic Variation 2.326° W
Sunrise 2018-05-22 10:38:59 UTC / 2018-05-22 05:38:59 Local
Sunset 2018-05-23 01:11:52 UTC / 2018-05-22 20:11:52 Local
Advertisement - Login to hide

Runways

ID Width Length Bearing (true) Bearing (mag) Surface Threshold Offset Overrun Length
09 180 ft / 55 m 1,915 ft / 584 m 90.00° 92.33° Grass 0 ft / 0 m 0 ft / 0 m
18 75 ft / 23 m 4,008 ft / 1,222 m 179.32° 181.65° Asphalt 0 ft / 0 m 0 ft / 0 m
27 180 ft / 55 m 1,915 ft / 584 m 270.00° 272.33° Grass 300 ft / 91 m 0 ft / 0 m
36 75 ft / 23 m 4,008 ft / 1,222 m 359.32° 1.65° Asphalt 0 ft / 0 m 0 ft / 0 m

Map

Weather


0- 5 10 15 20 25 30 35+ Temperature / ° C

Clouds and Precipitation
Forecast for 2018-05-22 06:00 UTC. Updated 3 hours ago

Ground ~20,000 ft ~40,000 ft Winds

METAR

KTAZ 220735Z AUTO 18004KT 5SM BR SCT036 19/19 A2998 RMK AO2 T01880188

TAF

Not found

Frequencies

Recorded 123.87 MHz AWOS 3
Approach 118.60 MHz SPRINGFIELD APP/DEP
Unicom 122.80 MHz CTAF/UNICOM
Approach 124.45 MHz SPRINGFIELD APP/DEP
Warning: Do not use this data for real-world aviation or navigation. No guarantee of current accuracy is given.